[[{"header":{"parameterUnit":"m.s-1","parameterCategory":1,"la1":30.2991,"la2":30.254,"lo1":-89.0895,"lo2":-89.0444,"dy":0.0017,"dx":0.0017,"nx":28,"ny":28,"refTime":"2025-02-02T09:00:00:Z","depth":0,"parameterNumber":2,"parameterNumberName":"U-component_of_WINDS"},"data":[0,0,0,0,0,0,0,0,0,0,0,0,0,0,0,0,0,0,0,0,0,0,0,0,0,0,0,0,0,0,0,0,0,0,0,0,0,0,0,0,0,0,0,0,0,0,0,0,0,0,0,0,0,0,0,0,0,0,-0.7353,-0.7353,0,-0.7307,-0.7307,-0.7306,-0.7267,-0.7266,-0.7266,-0.7265,-0.7218,-0.7218,-0.7217,0,0,0,0,0,0,0,0,0,0,0,0,0,-0.7409,-0.7408,-0.7353,-0.7353,-0.7352,-0.7307,-0.7307,-0.7306,-0.7267,-0.7266,-0.7266,-0.7265,-0.7219,-0.7218,-0.7217,0,0,0,0,0,0,0,0,0,0,0,0,0,-0.7376,-0.7408,-0.7353,-0.7327,-0.7324,-0.7307,-0.7307,-0.7306,-0.7267,-0.7266,-0.7265,-0.7265,-0.7219,-0.7218,-0.7216,-0.7222,0,0,-0.7213,-0.7212,0,0,0,0,0,0,0,0,-0.7378,-0.7374,-0.7332,-0.7329,-0.7326,-0.7292,-0.7309,-0.7278,-0.7267,-0.7289,-0.7265,-0.7265,-0.7243,-0.724,-0.7233,-0.722,-0.7218,-0.7213,-0.7212,-0.7211,-0.7211,0,0,0,0,0,0,0,-0.738,-0.7376,-0.7335,-0.7331,-0.7327,-0.7318,-0.7313,-0.7303,-0.727,-0.7287,-0.7284,-0.7279,-0.7242,-0.7234,-0.7231,-0.7217,-0.7213,-0.7211,-0.7211,-0.721,-0.7207,-0.7208,0,0,0,0,0,0,-0.7386,-0.7378,-0.7336,-0.7334,-0.7351,-0.7318,-0.7312,-0.7303,-0.727,-0.7265,-0.7279,-0.7277,-0.7237,-0.7233,-0.723,-0.7235,-0.7211,-0.721,-0.7209,-0.7207,-0.7208,-0.7208,0,0,0,0,0,0,-0.7388,-0.7383,-0.7338,-0.7355,-0.7348,-0.7317,-0.7309,-0.7303,-0.7295,-0.7265,-0.7259,-0.7278,-0.7236,-0.7231,-0.7224,-0.7232,-0.7209,-0.7208,-0.7206,-0.7207,-0.7208,-0.7244,0,0,0,0,0,0,-0.7389,-0.7384,-0.7385,-0.7355,-0.7348,-0.7334,-0.7309,-0.7302,-0.7293,-0.729,-0.7262,-0.7256,-0.7235,-0.7227,-0.7223,-0.723,-0.7207,-0.7205,-0.7206,-0.7208,-0.7242,-0.7246,-0.725,0,0,0,0,0,-0.7391,-0.7397,-0.7385,-0.7381,-0.7349,-0.7334,-0.733,-0.7305,-0.7294,-0.7295,-0.7276,-0.7257,-0.7232,-0.7226,-0.7222,-0.7229,-0.7204,-0.7206,-0.7208,-0.724,-0.7245,-0.725,0,0,0,0,0,0,-0.7428,-0.7392,-0.7379,-0.7375,-0.7358,-0.7327,-0.7328,-0.7311,-0.7297,-0.7295,-0.7265,-0.7259,-0.7255,-0.7241,-0.7235,-0.7233,-0.7216,-0.7217,-0.7242,-0.7247,-0.7251,-0.7254,-0.7206,0,0,0,0,0,-0.7436,-0.7427,-0.7396,-0.7395,-0.7388,-0.736,-0.7352,-0.7335,-0.7316,-0.7309,-0.7289,-0.7271,-0.726,-0.7252,-0.724,-0.724,-0.7234,-0.7243,-0.7247,-0.725,-0.7251,-0.7251,-0.7255,-0.7213,-0.7213,-0.7213,0,0,-0.7452,-0.7431,-0.7427,-0.7402,-0.7387,-0.7379,-0.7354,-0.7346,-0.7339,-0.7307,-0.73,-0.7285,-0.7263,-0.726,-0.7258,-0.7248,-0.7261,-0.7252,-0.7255,-0.7254,-0.7253,-0.7257,-0.7261,-0.7214,-0.7214,-0.7214,0,0,-0.7476,-0.7459,-0.7457,-0.7443,-0.742,-0.7402,-0.7401,-0.7374,-0.7362,-0.7354,-0.733,-0.7323,-0.7303,-0.7289,-0.7279,-0.73,-0.7283,-0.7297,-0.7317,-0.7318,-0.7321,-0.7324,-0.7332,-0.7335,-0.7298,-0.7298,-0.7298,0,-0.7499,-0.7485,-0.7458,-0.7452,-0.7442,-0.7414,-0.7412,-0.7399,-0.7373,-0.7368,-0.7358,-0.7333,-0.7316,-0.731,-0.7315,-0.7308,-0.7308,-0.73,-0.7322,-0.7325,-0.7327,-0.7334,-0.7338,-0.73,-0.73,-0.73,-0.7299,0,-0.7514,-0.7505,-0.7506,-0.7482,-0.7472,-0.7468,-0.7442,-0.7436,-0.742,-0.7403,-0.7396,-0.7375,-0.7358,-0.7356,-0.734,-0.7348,-0.7343,-0.7328,-0.731,-0.7334,-0.734,-0.7342,-0.7303,-0.7302,-0.7302,-0.7301,0,0,-0.7559,-0.7522,-0.7523,-0.7512,-0.7486,-0.7478,-0.7473,-0.7457,-0.7453,-0.7436,-0.7432,-0.7417,-0.7403,-0.7392,-0.7375,-0.7375,-0.7394,-0.7361,-0.736,-0.7368,-0.7402,-0.7414,-0.7417,-0.7382,-0.7383,-0.7383,-0.7404,0,-0.758,-0.7569,-0.7546,-0.7543,-0.7534,-0.7507,-0.7503,-0.7487,-0.7471,-0.7462,-0.7445,-0.7435,-0.7418,-0.7411,-0.741,-0.7392,-0.7401,-0.739,-0.7378,-0.7378,-0.7385,-0.742,-0.7432,-0.7453,-0.7406,-0.7407,-0.7407,0,-0.7602,-0.7587,-0.7583,-0.7558,-0.7554,-0.7551,-0.7534,-0.7526,-0.7507,-0.7496,-0.7485,-0.7465,-0.746,-0.7444,-0.7436,-0.7429,-0.7423,-0.7414,-0.7414,-0.7412,-0.7394,-0.742,-0.7459,-0.7462,-0.7411,-0.741,-0.741,0,-0.7636,-0.7616,-0.7611,-0.7603,-0.7573,-0.7572,-0.7559,-0.754,-0.7532,-0.7518,-0.7513,-0.7498,-0.7491,-0.748,-0.7458,-0.7448,-0.7453,-0.7435,-0.7444,-0.7445,-0.7446,-0.7446,-0.7485,-0.7442,-0.7442,-0.7442,-0.7442,0,-0.7662,-0.766,-0.7626,-0.7623,-0.7622,-0.7596,-0.7595,-0.758,-0.7563,-0.7557,-0.7533,-0.7528,-0.7499,-0.7491,-0.7474,-0.7471,-0.7467,-0.7458,-0.7454,-0.7461,-0.7462,-0.7456,-0.7454,-0.7443,-0.7442,-0.7442,-0.7442,0,-0.77,-0.7677,-0.767,-0.7643,-0.7636,-0.7636,-0.7613,-0.7609,-0.7592,-0.7585,-0.7582,-0.7556,-0.7546,-0.7523,-0.7506,-0.7494,-0.7495,-0.7487,-0.7502,-0.7499,-0.751,-0.7509,-0.7547,-0.7551,-0.7505,-0.7505,-0.7506,0,-0.7718,-0.7716,-0.7689,-0.7683,-0.7672,-0.7663,-0.7655,-0.7629,-0.7622,-0.7601,-0.7601,-0.7588,-0.7577,-0.7562,-0.7542,-0.7529,-0.752,-0.7534,-0.7518,-0.7526,-0.7521,-0.7522,-0.7522,-0.7538,-0.7539,-0.7539,-0.754,0,-0.7752,-0.7741,-0.773,-0.7716,-0.7707,-0.7694,-0.768,-0.7677,-0.7648,-0.7642,-0.7631,-0.7622,-0.7605,-0.7594,-0.7578,-0.7566,-0.7549,-0.7545,-0.7547,-0.7554,-0.7563,-0.7558,-0.7512,-0.7544,-0.7544,-0.7543,-0.7543,-0.7543,-0.7781,-0.7779,-0.7759,-0.7748,-0.7735,-0.7723,-0.7719,-0.7701,-0.7692,-0.7676,-0.7662,-0.7653,-0.7635,-0.7612,-0.7601,-0.7594,-0.7585,-0.7587,-0.7588,-0.7589,-0.7592,-0.7564,-0.7591,-0.7591,-0.7591,-0.7591,-0.7591,0,-0.7815,-0.7801,-0.7791,-0.7772,-0.7764,-0.7748,-0.7732,-0.7726,-0.7718,-0.7703,-0.7693,-0.7681,-0.767,-0.7649,-0.7636,-0.7635,-0.7626,-0.7632,-0.7632,-0.763,-0.7601,-0.7601,-0.7639,-0.7639,-0.7639,-0.7639,-0.7639,-0.7639,-0.7831,-0.7827,-0.7814,-0.7803,-0.7789,-0.778,-0.7772,-0.7761,-0.7749,-0.7737,-0.7727,-0.7714,-0.7697,-0.7683,-0.7672,-0.7666,-0.7663,-0.7672,-0.7663,-0.7636,-0.7632,-0.7628,-0.7628,-0.7671,-0.7671,-0.7693,-0.7694,-0.7694]},{"header":{"parameterUnit":"m.s-1","parameterCategory":1,"la1":30.2991,"la2":30.254,"lo1":-89.0895,"lo2":-89.0444,"dy":0.0017,"dx":0.0017,"nx":28,"ny":28,"refTime":"2025-02-02T09:00:00:Z","depth":0,"parameterNumber":3,"parameterNumberName":"V-component_of_WINDS"},"data":[0,0,0,0,0,0,0,0,0,0,0,0,0,0,0,0,0,0,0,0,0,0,0,0,0,0,0,0,0,0,0,0,0,0,0,0,0,0,0,0,0,0,0,0,0,0,0,0,0,0,0,0,0,0,0,0,0,0,2.0489,2.0489,0,2.0479,2.0479,2.0479,2.0478,2.0478,2.0479,2.0479,2.0466,2.0465,2.0465,0,0,0,0,0,0,0,0,0,0,0,0,0,2.0505,2.0505,2.0489,2.0489,2.0489,2.0479,2.0479,2.0479,2.0478,2.0478,2.0479,2.0479,2.0466,2.0465,2.0465,0,0,0,0,0,0,0,0,0,0,0,0,0,2.0497,2.0505,2.0489,2.0487,2.0487,2.0479,2.0479,2.0479,2.0478,2.0478,2.0479,2.0479,2.0466,2.0466,2.0465,2.0457,0,0,2.0463,2.0462,0,0,0,0,0,0,0,0,2.0497,2.0496,2.0488,2.0487,2.0487,2.048,2.048,2.0471,2.0478,2.0482,2.0479,2.0479,2.047,2.0469,2.0467,2.0456,2.0456,2.0463,2.0462,2.0462,2.0462,0,0,0,0,0,0,0,2.0498,2.0497,2.0485,2.0487,2.0487,2.0486,2.0485,2.0478,2.0475,2.0481,2.0481,2.048,2.047,2.0468,2.0467,2.0455,2.0463,2.0462,2.0462,2.0461,2.0437,2.0437,0,0,0,0,0,0,2.0499,2.0497,2.0485,2.0484,2.0493,2.0486,2.0485,2.0482,2.0475,2.0474,2.048,2.048,2.0469,2.0467,2.0466,2.0456,2.0462,2.0461,2.0461,2.0438,2.0437,2.0437,0,0,0,0,0,0,2.05,2.0498,2.0485,2.0491,2.0489,2.0485,2.0482,2.0482,2.0479,2.0474,2.0473,2.0478,2.0469,2.0467,2.0459,2.0456,2.0461,2.046,2.0438,2.0437,2.0437,2.0436,0,0,0,0,0,0,2.05,2.0498,2.0496,2.0491,2.0489,2.048,2.0482,2.0481,2.0478,2.0478,2.0472,2.0471,2.0469,2.046,2.0459,2.0455,2.046,2.0438,2.0438,2.0437,2.0437,2.0436,2.0436,0,0,0,0,0,2.0501,2.0495,2.0496,2.0494,2.0486,2.0479,2.0478,2.0476,2.0478,2.0475,2.0472,2.0471,2.0456,2.0459,2.0458,2.0454,2.0438,2.0438,2.0437,2.0437,2.0436,2.0436,0,0,0,0,0,0,2.0499,2.0495,2.0495,2.0488,2.0484,2.0479,2.0476,2.0475,2.047,2.0471,2.0468,2.0466,2.0458,2.0455,2.0459,2.0445,2.0447,2.0447,2.0448,2.0447,2.0447,2.0448,2.0459,0,0,0,0,0,2.0498,2.0494,2.049,2.0484,2.0482,2.0479,2.0476,2.0475,2.0471,2.0469,2.0465,2.046,2.0454,2.045,2.0445,2.0436,2.0435,2.0433,2.0432,2.0432,2.0431,2.0426,2.0425,2.0435,2.0435,2.0435,0,0,2.0495,2.0493,2.049,2.0484,2.0481,2.0476,2.0478,2.0473,2.0469,2.0468,2.0461,2.0458,2.0452,2.0444,2.044,2.0441,2.0428,2.0431,2.0431,2.043,2.0425,2.0424,2.0424,2.0435,2.0435,2.0435,0,0,2.0489,2.0486,2.0481,2.0478,2.0474,2.0472,2.0471,2.0466,2.0464,2.0457,2.0456,2.0451,2.0441,2.0437,2.0434,2.0426,2.0425,2.0424,2.0421,2.0416,2.0415,2.0415,2.0412,2.0411,2.0423,2.0423,2.0423,0,2.0486,2.048,2.0478,2.0474,2.0471,2.047,2.0465,2.0462,2.0456,2.0453,2.0455,2.0442,2.0438,2.0429,2.0427,2.0425,2.0423,2.0425,2.0416,2.0415,2.0414,2.0411,2.041,2.0423,2.0423,2.0423,2.0423,0,2.0477,2.0472,2.0468,2.0463,2.046,2.0455,2.0452,2.0449,2.0448,2.0446,2.0438,2.0433,2.0427,2.0425,2.0423,2.0415,2.0416,2.0417,2.0419,2.0413,2.0411,2.0409,2.0423,2.0423,2.0423,2.0423,0,0,2.0469,2.0463,2.0462,2.046,2.0455,2.0451,2.0445,2.044,2.0437,2.0433,2.0428,2.0419,2.042,2.0416,2.0414,2.041,2.0404,2.0411,2.0411,2.041,2.0395,2.0395,2.0394,2.0404,2.0404,2.0403,2.0396,0,2.0461,2.0453,2.0452,2.0444,2.0439,2.0439,2.0434,2.043,2.0428,2.0423,2.042,2.0415,2.0416,2.0414,2.041,2.0406,2.0401,2.0406,2.0399,2.0398,2.04,2.0392,2.0392,2.0385,2.0394,2.0394,2.0394,0,2.0452,2.0448,2.044,2.0436,2.0434,2.043,2.0425,2.0421,2.0416,2.0415,2.0411,2.0409,2.0403,2.0405,2.0396,2.04,2.0397,2.0394,2.0394,2.0393,2.0396,2.0391,2.0383,2.0381,2.0392,2.0393,2.0393,0,2.0447,2.044,2.0434,2.0432,2.0427,2.0425,2.0422,2.0418,2.0415,2.041,2.0408,2.0402,2.0399,2.0394,2.0391,2.0393,2.0382,2.0384,2.038,2.038,2.0378,2.0378,2.0368,2.0376,2.0376,2.0376,2.0376,0,2.044,2.0435,2.0432,2.0429,2.0423,2.0421,2.0416,2.0413,2.0409,2.0405,2.0404,2.0399,2.0395,2.039,2.0388,2.0381,2.0379,2.0377,2.0377,2.0377,2.0378,2.0375,2.0376,2.0375,2.0375,2.0375,2.0375,0,2.0433,2.0432,2.0425,2.0422,2.042,2.0416,2.0413,2.0409,2.0406,2.0401,2.0399,2.0395,2.0389,2.0386,2.0378,2.0376,2.0368,2.0368,2.037,2.037,2.0366,2.0367,2.0355,2.0353,2.0361,2.0361,2.0361,0,2.0429,2.0425,2.0421,2.0418,2.0416,2.0412,2.0409,2.0407,2.0403,2.0398,2.0395,2.0389,2.0384,2.0374,2.037,2.0364,2.0363,2.036,2.0362,2.0363,2.0363,2.0364,2.0363,2.0359,2.0359,2.0359,2.0359,0,2.0421,2.042,2.0416,2.0412,2.0409,2.0405,2.0401,2.0399,2.0396,2.0392,2.0387,2.0383,2.0375,2.0369,2.0363,2.036,2.0359,2.0358,2.0357,2.0358,2.0359,2.0359,2.0369,2.0358,2.0358,2.0359,2.0359,2.0359,2.0415,2.0412,2.0409,2.0404,2.0402,2.0398,2.0395,2.0392,2.0388,2.0382,2.0381,2.0375,2.037,2.0361,2.0358,2.0352,2.0353,2.0351,2.0351,2.035,2.035,2.036,2.0351,2.0351,2.0351,2.0351,2.0351,0,2.0407,2.0405,2.0401,2.0397,2.0393,2.0393,2.0389,2.0386,2.0381,2.0377,2.0372,2.0366,2.036,2.0356,2.0349,2.0346,2.0345,2.0344,2.0345,2.0344,2.035,2.0352,2.0345,2.0345,2.0345,2.0345,2.0345,2.0345,2.0403,2.0398,2.0396,2.0389,2.0387,2.0382,2.038,2.0376,2.0373,2.0366,2.0361,2.0359,2.0354,2.0348,2.0342,2.0341,2.0339,2.0338,2.0337,2.0343,2.0343,2.0344,2.0346,2.0338,2.0338,2.0331,2.0331,2.0331]}]]